This is the latest recevied weather packets stored in our database for station/object DG3RAP-11. If no packets are shown the sender has not sent any weather packets the latest 10 day(s).
| Time | Temp. | Humidity | Pressure | Rain* | Wind** | Luminosity | Snow |
|---|---|---|---|---|---|---|---|
| 1777836963 | 20° C | 47% | 1012 hPa | 0 mm | - | - | - |
| 1777836423 | 20.56° C | 44% | 1011.6 hPa | 0 mm | - | - | - |
| 1777835883 | 21.67° C | 40% | 1011.8 hPa | 0 mm | - | - | - |
| 1777835343 | 21.67° C | 39% | 1011.7 hPa | 0 mm | - | - | - |
| 1777834803 | 21.11° C | 39% | 1011.6 hPa | 0 mm | - | - | - |
| 1777834443 | 21.67° C | 38% | 1011.6 hPa | 0 mm | - | - | - |
| 1777833903 | 21.11° C | 38% | 1011.4 hPa | 0 mm | - | - | - |
| 1777833363 | 21.11° C | 39% | 1011.5 hPa | 0 mm | - | - | - |
| 1777832823 | 21.67° C | 37% | 1011.2 hPa | 0 mm | - | - | - |
| 1777832284 | 22.22° C | 37% | 1011.2 hPa | 0 mm | - | - | - |
| 1777831743 | 23.33° C | 34% | 1011.3 hPa | 0 mm | - | - | - |
| 1777831203 | 22.78° C | 36% | 1011.4 hPa | 0 mm | - | - | - |
| 1777830843 | 22.78° C | 36% | 1011.2 hPa | 0 mm | - | - | - |
| 1777830303 | 23.33° C | 36% | 1011.4 hPa | 0 mm | - | - | - |
| 1777829763 | 23.33° C | 35% | 1011.1 hPa | 0 mm | - | - | - |
| 1777829223 | 23.33° C | 36% | 1011.1 hPa | 0 mm | - | - | - |
| 1777828683 | 23.89° C | 36% | 1011.1 hPa | 0 mm | - | - | - |
| 1777828143 | 24.44° C | 37% | 1011.3 hPa | 0 mm | - | - | - |
| 1777827603 | 24.44° C | 38% | 1011.3 hPa | 0 mm | - | - | - |
| 1777827243 | 24.44° C | 32% | 1011.2 hPa | 0 mm | - | - | - |
| 1777826703 | 23.89° C | 32% | 1011.2 hPa | 0 mm | - | - | - |
| 1777826163 | 24.44° C | 36% | 1011.5 hPa | 0 mm | - | - | - |
| 1777825623 | 24.44° C | 30% | 1011.4 hPa | 0 mm | - | - | - |
| 1777825083 | 25° C | 32% | 1011.3 hPa | 0 mm | - | - | - |
| 1777824543 | 26.11° C | 35% | 1011.3 hPa | 0 mm | - | - | - |
* Rain latest hour (hover to see other rain measurements)
** Current wind speed in m/s (hover to see current wind gust speed)